• In Hungary
  • List of Countries
  • For 7 days
  • Water Temperature
  • Satellite Maps
  • Weather Map
  • News
  • Weather Widgets
  • user-avatar
    Login

    Hourly Weather Staryy Zagan

    Today, 20 September, Thursday

    Time Temperature Precipitation Wind Pressure Humidity
    00:00 -2°C° 2 mm 6 mps 673 mmHg 92%
    01:00 -3°C° 2 mm 6 mps 673 mmHg 92%
    02:00 -3°C° 1.9 mm 7 mps 673 mmHg 92%
    03:00 -3°C° 1.9 mm 7 mps 672 mmHg 93%
    04:00 -3°C° 1.9 mm 7 mps 672 mmHg 93%
    05:00 -3°C° 2.2 mm 7 mps 672 mmHg 93%
    06:00 -4°C° 2.2 mm 8 mps 672 mmHg 93%
    07:00 -2°C° 0 mm 5 mps 671 mmHg 93%
    08:00 -3°C° 2.9 mm 6 mps 670 mmHg 93%
    09:00 -3°C° 2.9 mm 7 mps 670 mmHg 93%
    10:00 -2°C° 2.9 mm 7 mps 670 mmHg 94%
    11:00 -2°C° 2.5 mm 7 mps 670 mmHg 94%
    12:00 -2°C° 2.5 mm 7 mps 671 mmHg 95%
    13:00 -1°C° 0 mm 6 mps 671 mmHg 96%
    14:00 -1°C° 2.1 mm 6 mps 672 mmHg 96%
    15:00 -1°C° 2.1 mm 7 mps 672 mmHg 95%
    16:00 -1°C° 2.1 mm 7 mps 672 mmHg 95%
    17:00 -1°C° 1.1 mm 8 mps 673 mmHg 94%
    18:00 -1°C° 1.1 mm 8 mps 673 mmHg 93%
    19:00 -2°C° 0 mm 8 mps 674 mmHg 92%
    20:00 -2°C° 0.7 mm 8 mps 674 mmHg 92%
    21:00 -2°C° 0.7 mm 8 mps 674 mmHg 91%
    22:00 -1°C° 0.7 mm 8 mps 675 mmHg 91%
    23:00 -2°C° 0.3 mm 8 mps 675 mmHg 90%

    Tomorrow, 21 September, Friday

    Time Temperature Precipitation Wind Pressure Humidity
    00:00 -2°C° 0.3 mm 8 mps 675 mmHg 90%
    01:00 -2°C° 0.3 mm 7 mps 676 mmHg 90%
    02:00 -2°C° 0.1 mm 7 mps 676 mmHg 91%
    03:00 -2°C° 0.1 mm 6 mps 676 mmHg 91%
    04:00 -2°C° 0.1 mm 6 mps 677 mmHg 92%
    05:00 -1°C° 0.2 mm 5 mps 677 mmHg 92%
    06:00 -1°C° 0.2 mm 5 mps 677 mmHg 93%
    07:00 -1°C° 0.2 mm 5 mps 678 mmHg 93%
    08:00 -1°C° 0.2 mm 5 mps 678 mmHg 93%
    09:00 0°C° 0.2 mm 5 mps 679 mmHg 92%
    10:00 0°C° 0.2 mm 5 mps 679 mmHg 91%
    11:00 +1°C° 0.1 mm 5 mps 680 mmHg 91%
    12:00 +1°C° 0.1 mm 5 mps 680 mmHg 90%
    13:00 +2°C° 0.1 mm 5 mps 680 mmHg 89%
    14:00 +2°C° 0 mm 5 mps 680 mmHg 89%
    15:00 +3°C° 0 mm 4 mps 680 mmHg 88%
    16:00 +3°C° 0 mm 4 mps 680 mmHg 88%
    17:00 +2°C° 0.1 mm 3 mps 681 mmHg 89%
    18:00 +1°C° 0.1 mm 3 mps 681 mmHg 91%
    19:00 +1°C° 0.1 mm 2 mps 681 mmHg 92%
    20:00 +1°C° 0.2 mm 2 mps 681 mmHg 93%
    21:00 +1°C° 0.2 mm 2 mps 681 mmHg 93%
    22:00 +1°C° 0.2 mm 2 mps 682 mmHg 94%
    23:00 +2°C° 0.2 mm 1 mps 682 mmHg 95%

    Day after tomorrow, 22 September, Saturday

    Time Temperature Precipitation Wind Pressure Humidity
    00:00 +2°C° 0.2 mm 1 mps 682 mmHg 95%
    01:00 +2°C° 0.2 mm 1 mps 682 mmHg 96%
    02:00 +1°C° 0.1 mm 1 mps 682 mmHg 96%
    03:00 +1°C° 0.1 mm 1 mps 682 mmHg 95%
    04:00 +1°C° 0.1 mm 1 mps 683 mmHg 95%
    05:00 +1°C° 0 mm 1 mps 683 mmHg 95%
    06:00 +2°C° 0 mm 1 mps 684 mmHg 94%
    07:00 +2°C° 0 mm 1 mps 684 mmHg 94%
    08:00 +3°C° 0 mm 1 mps 684 mmHg 91%
    09:00 +4°C° 0 mm 1 mps 684 mmHg 89%
    10:00 +6°C° 0 mm 1 mps 685 mmHg 86%
    11:00 +6°C° 0 mm 1 mps 684 mmHg 85%
    12:00 +6°C° 0 mm 2 mps 684 mmHg 84%
    13:00 +6°C° 0 mm 2 mps 684 mmHg 83%
    14:00 +6°C° 0 mm 2 mps 684 mmHg 84%
    15:00 +6°C° 0 mm 2 mps 684 mmHg 85%
    16:00 +5°C° 0 mm 2 mps 684 mmHg 86%
    17:00 +4°C° 0 mm 2 mps 684 mmHg 90%
    18:00 +4°C° 0 mm 1 mps 684 mmHg 93%
    19:00 +3°C° 0 mm 1 mps 684 mmHg 96%
    20:00 +3°C° 0 mm 1 mps 684 mmHg 97%
    21:00 +2°C° 0 mm 1 mps 684 mmHg 97%
    22:00 +2°C° 0 mm 1 mps 685 mmHg 97%
    23:00 +2°C° 0 mm 1 mps 685 mmHg 97%

    23 September, Sunday

    Time Temperature Precipitation Wind Pressure Humidity
    00:00 +2°C° 0 mm 1 mps 685 mmHg 97%
    01:00 +2°C° 0 mm 1 mps 684 mmHg 97%
    02:00 +2°C° 0 mm 1 mps 684 mmHg 96%
    03:00 +1°C° 0 mm 1 mps 684 mmHg 96%
    04:00 +1°C° 0 mm 1 mps 684 mmHg 95%
    05:00 +1°C° 0 mm 1 mps 685 mmHg 94%
    06:00 +2°C° 0 mm 1 mps 685 mmHg 93%
    07:00 +2°C° 0 mm 1 mps 685 mmHg 92%
    08:00 +3°C° 0 mm 1 mps 685 mmHg 90%
    09:00 +5°C° 0 mm 1 mps 685 mmHg 88%
    10:00 +6°C° 0 mm 1 mps 685 mmHg 85%
    11:00 +7°C° 0 mm 1 mps 684 mmHg 83%
    12:00 +6°C° 0 mm 2 mps 684 mmHg 82%
    13:00 +7°C° 0 mm 2 mps 684 mmHg 80%
    14:00 +7°C° 0 mm 2 mps 683 mmHg 81%
    15:00 +7°C° 0 mm 2 mps 683 mmHg 82%
    16:00 +6°C° 0 mm 2 mps 683 mmHg 84%
    17:00 +5°C° 0 mm 2 mps 683 mmHg 88%
    18:00 +3°C° 0 mm 2 mps 683 mmHg 92%
    19:00 +1°C° 0 mm 2 mps 683 mmHg 96%
    20:00 +1°C° 0 mm 2 mps 683 mmHg 96%
    21:00 -1°C° 0 mm 2 mps 682 mmHg 97%
    22:00 +1°C° 0 mm 1 mps 682 mmHg 97%
    23:00 0°C° 0 mm 1 mps 682 mmHg 97%

    24 September, Monday

    Time Temperature Precipitation Wind Pressure Humidity
    00:00 0°C° 0 mm 1 mps 682 mmHg 96%
    01:00 0°C° 0 mm 1 mps 681 mmHg 96%
    02:00 -1°C° 0 mm 1 mps 681 mmHg 96%
    03:00 -1°C° 0 mm 1 mps 681 mmHg 95%
    04:00 -1°C° 0 mm 1 mps 681 mmHg 95%
    05:00 0°C° 0 mm 1 mps 681 mmHg 92%
    06:00 0°C° 0 mm 1 mps 681 mmHg 90%
    07:00 +1°C° 0 mm 1 mps 681 mmHg 88%
    08:00 +3°C° 0 mm 1 mps 681 mmHg 83%
    09:00 +5°C° 0 mm 1 mps 680 mmHg 77%
    10:00 +7°C° 0 mm 1 mps 680 mmHg 72%
    11:00 +8°C° 0 mm 1 mps 680 mmHg 70%
    12:00 +9°C° 0 mm 1 mps 680 mmHg 68%
    13:00 +10°C° 0 mm 2 mps 679 mmHg 66%
    14:00 +9°C° 0 mm 2 mps 679 mmHg 69%
    15:00 +9°C° 0 mm 2 mps 679 mmHg 72%
    16:00 +9°C° 0 mm 2 mps 679 mmHg 75%
    17:00 +8°C° 0 mm 1 mps 679 mmHg 81%
    18:00 +6°C° 0 mm 1 mps 679 mmHg 87%
    19:00 +5°C° 0 mm 1 mps 679 mmHg 93%
    20:00 +4°C° 0 mm 1 mps 678 mmHg 93%
    21:00 +4°C° 0 mm 1 mps 678 mmHg 94%
    22:00 +4°C° 0 mm 1 mps 678 mmHg 94%
    23:00 +3°C° 0 mm 1 mps 678 mmHg 94%

    25 September, Tuesday

    Time Temperature Precipitation Wind Pressure Humidity
    00:00 +3°C° 0 mm 1 mps 678 mmHg 93%
    01:00 +3°C° 0 mm 1 mps 677 mmHg 93%
    02:00 +2°C° 0 mm 1 mps 677 mmHg 92%
    03:00 +2°C° 0 mm 1 mps 677 mmHg 92%
    04:00 +2°C° 0 mm 1 mps 677 mmHg 92%
    05:00 +2°C° 0 mm 1 mps 677 mmHg 89%
    06:00 +3°C° 0 mm 1 mps 677 mmHg 87%
    07:00 +4°C° 0 mm 1 mps 677 mmHg 85%
    08:00 +6°C° 0 mm 1 mps 678 mmHg 79%
    09:00 +8°C° 0 mm 1 mps 678 mmHg 73%
    10:00 +10°C° 0 mm 1 mps 678 mmHg 67%
    11:00 +12°C° 0 mm 1 mps 678 mmHg 64%
    12:00 +13°C° 0 mm 1 mps 677 mmHg 62%
    13:00 +14°C° 0 mm 1 mps 677 mmHg 59%
    14:00 +14°C° 0 mm 1 mps 677 mmHg 62%
    15:00 +13°C° 0 mm 1 mps 677 mmHg 66%
    16:00 +13°C° 0 mm 1 mps 677 mmHg 69%
    17:00 +11°C° 0 mm 1 mps 676 mmHg 76%
    18:00 +9°C° 0 mm 1 mps 676 mmHg 84%
    19:00 +7°C° 0 mm 1 mps 676 mmHg 92%
    20:00 +6°C° 0 mm 1 mps 676 mmHg 93%
    21:00 +6°C° 0 mm 1 mps 676 mmHg 94%
    22:00 +5°C° 0 mm 1 mps 675 mmHg 95%
    23:00 +5°C° 0 mm 1 mps 675 mmHg 95%
    Show more